Time,TemperatureF,DewpointF,PressureIn,WindDirection,WindDirectionDegrees,WindSpeedMPH,WindSpeedGustMPH,Humidity,HourlyPrecipIn,Conditions,Clouds,dailyrainin,SoftwareType,DateUTC
2013-01-07 00:22:00,43.0,-99.9,-100.00,SW,234,1.0,-999.0,-999,-99.99,,,-99.99,,2013-01-07 08:22:00,
2013-01-07 00:33:00,43.0,-99.9,-100.00,SW,234,1.0,-999.0,-999,-99.99,,,-99.99,,2013-01-07 08:33:00,
2013-01-07 00:43:00,43.0,-99.9,-100.00,SW,234,1.0,-999.0,-999,-99.99,,,-99.99,,2013-01-07 08:43:00,
2013-01-07 00:53:00,43.0,-99.9,-100.00,SW,234,1.0,-999.0,-999,-99.99,,,-99.99,,2013-01-07 08:53:00,
2013-01-07 01:23:00,42.0,-99.9,-100.00,SE,129,1.0,-999.0,-999,-99.99,,,-99.99,,2013-01-07 09:23:00,
2013-01-07 01:33:00,42.0,-99.9,-100.00,SE,129,1.0,-999.0,-999,-99.99,,,-99.99,,2013-01-07 09:33:00,
2013-01-07 01:43:00,42.0,-99.9,-100.00,SE,129,1.0,-999.0,-999,-99.99,,,-99.99,,2013-01-07 09:43:00,
2013-01-07 01:53:00,42.0,-99.9,-100.00,SE,129,1.0,-999.0,-999,-99.99,,,-99.99,,2013-01-07 09:53:00,
2013-01-07 02:23:00,50.0,-99.9,-100.00,WNW,290,9.0,-999.0,-999,-99.99,,,-99.99,,2013-01-07 10:23:00,
2013-01-07 02:33:00,50.0,-99.9,-100.00,WNW,290,9.0,-999.0,-999,-99.99,,,-99.99,,2013-01-07 10:33:00,
2013-01-07 02:43:00,50.0,-99.9,-100.00,WNW,290,9.0,-999.0,-999,-99.99,,,-99.99,,2013-01-07 10:43:00,
2013-01-07 02:53:00,50.0,-99.9,-100.00,WNW,290,9.0,-999.0,-999,-99.99,,,-99.99,,2013-01-07 10:53:00,
2013-01-07 03:23:00,43.0,-99.9,-100.00,NW,311,4.0,-999.0,-999,-99.99,,,-99.99,,2013-01-07 11:23:00,
2013-01-07 03:33:00,43.0,-99.9,-100.00,NW,311,4.0,-999.0,-999,-99.99,,,-99.99,,2013-01-07 11:33:00,
2013-01-07 03:43:00,43.0,-99.9,-100.00,NW,311,4.0,-999.0,-999,-99.99,,,-99.99,,2013-01-07 11:43:00,
2013-01-07 03:53:00,43.0,-99.9,-100.00,NW,311,4.0,-999.0,-999,-99.99,,,-99.99,,2013-01-07 11:53:00,
2013-01-07 04:23:00,45.0,-99.9,-100.00,NNE,17,2.0,-999.0,-999,-99.99,,,-99.99,,2013-01-07 12:23:00,
2013-01-07 04:33:00,45.0,-99.9,-100.00,NNE,17,2.0,-999.0,-999,-99.99,,,-99.99,,2013-01-07 12:33:00,
2013-01-07 04:43:00,45.0,-99.9,-100.00,NNE,17,2.0,-999.0,-999,-99.99,,,-99.99,,2013-01-07 12:43:00,
2013-01-07 04:53:00,45.0,-99.9,-100.00,NNE,17,2.0,-999.0,-999,-99.99,,,-99.99,,2013-01-07 12:53:00,
2013-01-07 05:23:00,39.0,-99.9,-100.00,SE,138,3.0,-999.0,-999,-99.99,,,-99.99,,2013-01-07 13:23:00,
2013-01-07 05:33:00,39.0,-99.9,-100.00,SE,138,3.0,-999.0,-999,-99.99,,,-99.99,,2013-01-07 13:33:00,
2013-01-07 05:43:00,39.0,-99.9,-100.00,SE,138,3.0,-999.0,-999,-99.99,,,-99.99,,2013-01-07 13:43:00,
2013-01-07 05:53:00,39.0,-99.9,-100.00,SE,138,3.0,-999.0,-999,-99.99,,,-99.99,,2013-01-07 13:53:00,
2013-01-07 06:23:00,40.0,-99.9,-100.00,South,176,1.0,-999.0,-999,-99.99,,,-99.99,,2013-01-07 14:23:00,
2013-01-07 06:33:00,40.0,-99.9,-100.00,South,176,1.0,-999.0,-999,-99.99,,,-99.99,,2013-01-07 14:33:00,
2013-01-07 06:43:00,40.0,-99.9,-100.00,South,176,1.0,-999.0,-999,-99.99,,,-99.99,,2013-01-07 14:43:00,
2013-01-07 06:53:00,40.0,-99.9,-100.00,South,176,1.0,-999.0,-999,-99.99,,,-99.99,,2013-01-07 14:53:00,
2013-01-07 07:23:00,50.0,-99.9,-100.00,NE,43,7.0,-999.0,-999,-99.99,,,-99.99,,2013-01-07 15:23:00,
2013-01-07 07:33:00,50.0,-99.9,-100.00,NE,43,7.0,-999.0,-999,-99.99,,,-99.99,,2013-01-07 15:33:00,
2013-01-07 07:43:00,50.0,-99.9,-100.00,NE,43,7.0,-999.0,-999,-99.99,,,-99.99,,2013-01-07 15:43:00,
2013-01-07 07:53:00,50.0,-99.9,-100.00,NE,43,7.0,-999.0,-999,-99.99,,,-99.99,,2013-01-07 15:53:00,
2013-01-07 08:23:00,51.0,-99.9,-100.00,NNW,340,6.0,-999.0,-999,-99.99,,,-99.99,,2013-01-07 16:23:00,
2013-01-07 08:33:00,51.0,-99.9,-100.00,NNW,340,6.0,-999.0,-999,-99.99,,,-99.99,,2013-01-07 16:33:00,
2013-01-07 08:43:00,51.0,-99.9,-100.00,NNW,340,6.0,-999.0,-999,-99.99,,,-99.99,,2013-01-07 16:43:00,
2013-01-07 08:53:00,51.0,-99.9,-100.00,NNW,340,6.0,-999.0,-999,-99.99,,,-99.99,,2013-01-07 16:53:00,
2013-01-07 09:23:00,54.0,-99.9,-100.00,SE,135,6.0,-999.0,-999,-99.99,,,-99.99,,2013-01-07 17:23:00,
2013-01-07 09:33:00,54.0,-99.9,-100.00,SE,135,6.0,-999.0,-999,-99.99,,,-99.99,,2013-01-07 17:33:00,
2013-01-07 09:43:00,54.0,-99.9,-100.00,SE,135,6.0,-999.0,-999,-99.99,,,-99.99,,2013-01-07 17:43:00,
2013-01-07 09:53:00,54.0,-99.9,-100.00,SE,135,6.0,-999.0,-999,-99.99,,,-99.99,,2013-01-07 17:53:00,
2013-01-07 10:24:00,56.0,-99.9,-100.00,SE,141,6.0,-999.0,-999,-99.99,,,-99.99,,2013-01-07 18:24:00,
2013-01-07 10:33:00,56.0,-99.9,-100.00,SE,141,6.0,-999.0,-999,-99.99,,,-99.99,,2013-01-07 18:33:00,
2013-01-07 10:43:00,56.0,-99.9,-100.00,SE,141,6.0,-999.0,-999,-99.99,,,-99.99,,2013-01-07 18:43:00,
2013-01-07 10:53:00,56.0,-99.9,-100.00,SE,141,6.0,-999.0,-999,-99.99,,,-99.99,,2013-01-07 18:53:00,
2013-01-07 11:23:00,59.0,-99.9,-100.00,SE,140,5.0,-999.0,-999,-99.99,,,-99.99,,2013-01-07 19:23:00,
2013-01-07 11:33:00,59.0,-99.9,-100.00,SE,140,5.0,-999.0,-999,-99.99,,,-99.99,,2013-01-07 19:33:00,
2013-01-07 11:43:00,59.0,-99.9,-100.00,SE,140,5.0,-999.0,-999,-99.99,,,-99.99,,2013-01-07 19:43:00,
2013-01-07 11:53:00,59.0,-99.9,-100.00,SE,140,5.0,-999.0,-999,-99.99,,,-99.99,,2013-01-07 19:53:00,
2013-01-07 12:23:00,56.0,-99.9,-100.00,SE,134,4.0,-999.0,-999,-99.99,,,-99.99,,2013-01-07 20:23:00,
2013-01-07 12:33:00,56.0,-99.9,-100.00,SE,134,4.0,-999.0,-999,-99.99,,,-99.99,,2013-01-07 20:33:00,
2013-01-07 12:43:00,56.0,-99.9,-100.00,SE,134,4.0,-999.0,-999,-99.99,,,-99.99,,2013-01-07 20:43:00,
2013-01-07 12:53:00,56.0,-99.9,-100.00,SE,134,4.0,-999.0,-999,-99.99,,,-99.99,,2013-01-07 20:53:00,
2013-01-07 13:23:00,56.0,-99.9,-100.00,WNW,285,4.0,-999.0,-999,-99.99,,,-99.99,,2013-01-07 21:23:00,
2013-01-07 13:33:00,56.0,-99.9,-100.00,WNW,285,4.0,-999.0,-999,-99.99,,,-99.99,,2013-01-07 21:33:00,
2013-01-07 13:43:00,56.0,-99.9,-100.00,WNW,285,4.0,-999.0,-999,-99.99,,,-99.99,,2013-01-07 21:43:00,
2013-01-07 13:53:00,56.0,-99.9,-100.00,WNW,285,4.0,-999.0,-999,-99.99,,,-99.99,,2013-01-07 21:53:00,
2013-01-07 14:23:00,57.0,-99.9,-100.00,West,277,3.0,-999.0,-999,-99.99,,,-99.99,,2013-01-07 22:23:00,
2013-01-07 14:33:00,57.0,-99.9,-100.00,West,277,3.0,-999.0,-999,-99.99,,,-99.99,,2013-01-07 22:33:00,
2013-01-07 14:43:00,57.0,-99.9,-100.00,West,277,3.0,-999.0,-999,-99.99,,,-99.99,,2013-01-07 22:43:00,
2013-01-07 14:53:00,57.0,-99.9,-100.00,West,277,3.0,-999.0,-999,-99.99,,,-99.99,,2013-01-07 22:53:00,
2013-01-07 15:23:00,57.0,-99.9,-100.00,SSW,200,1.0,-999.0,-999,-99.99,,,-99.99,,2013-01-07 23:23:00,
2013-01-07 15:33:00,57.0,-99.9,-100.00,SSW,200,1.0,-999.0,-999,-99.99,,,-99.99,,2013-01-07 23:33:00,
2013-01-07 15:43:00,57.0,-99.9,-100.00,SSW,200,1.0,-999.0,-999,-99.99,,,-99.99,,2013-01-07 23:43:00,
2013-01-07 15:53:00,57.0,-99.9,-100.00,SSW,200,1.0,-999.0,-999,-99.99,,,-99.99,,2013-01-07 23:53:00,
2013-01-07 16:23:00,56.0,-99.9,-100.00,SSE,168,2.0,-999.0,-999,-99.99,,,-99.99,,2013-01-08 00:23:00,
2013-01-07 16:33:00,56.0,-99.9,-100.00,SSE,168,2.0,-999.0,-999,-99.99,,,-99.99,,2013-01-08 00:33:00,
2013-01-07 16:43:00,56.0,-99.9,-100.00,SSE,168,2.0,-999.0,-999,-99.99,,,-99.99,,2013-01-08 00:43:00,
2013-01-07 16:53:00,56.0,-99.9,-100.00,SSE,168,2.0,-999.0,-999,-99.99,,,-99.99,,2013-01-08 00:53:00,
2013-01-07 17:23:00,52.0,-99.9,-100.00,NE,53,1.0,-999.0,-999,-99.99,,,-99.99,,2013-01-08 01:23:00,
2013-01-07 17:33:00,52.0,-99.9,-100.00,NE,53,1.0,-999.0,-999,-99.99,,,-99.99,,2013-01-08 01:33:00,
2013-01-07 17:43:00,52.0,-99.9,-100.00,NE,53,1.0,-999.0,-999,-99.99,,,-99.99,,2013-01-08 01:43:00,
2013-01-07 17:53:00,52.0,-99.9,-100.00,NE,53,1.0,-999.0,-999,-99.99,,,-99.99,,2013-01-08 01:53:00,
2013-01-07 18:23:00,50.0,-99.9,-100.00,West,281,4.0,-999.0,-999,-99.99,,,-99.99,,2013-01-08 02:23:00,
2013-01-07 18:33:00,50.0,-99.9,-100.00,West,281,4.0,-999.0,-999,-99.99,,,-99.99,,2013-01-08 02:33:00,
2013-01-07 19:22:00,50.0,-99.9,-100.00,NW,322,2.0,-999.0,-999,-99.99,,,-99.99,,2013-01-08 03:22:00,
2013-01-07 19:33:00,50.0,-99.9,-100.00,NW,322,2.0,-999.0,-999,-99.99,,,-99.99,,2013-01-08 03:33:00,
2013-01-07 19:43:00,50.0,-99.9,-100.00,NW,322,2.0,-999.0,-999,-99.99,,,-99.99,,2013-01-08 03:43:00,
2013-01-07 19:53:00,50.0,-99.9,-100.00,NW,322,2.0,-999.0,-999,-99.99,,,-99.99,,2013-01-08 03:53:00,
2013-01-07 20:22:00,47.0,-99.9,-100.00,NW,319,2.0,-999.0,-999,-99.99,,,-99.99,,2013-01-08 04:22:00,
2013-01-07 20:33:00,47.0,-99.9,-100.00,NW,319,2.0,-999.0,-999,-99.99,,,-99.99,,2013-01-08 04:33:00,
2013-01-07 20:43:00,47.0,-99.9,-100.00,NW,319,2.0,-999.0,-999,-99.99,,,-99.99,,2013-01-08 04:43:00,
2013-01-07 20:52:00,47.0,-99.9,-100.00,NW,319,2.0,-999.0,-999,-99.99,,,-99.99,,2013-01-08 04:52:00,
2013-01-07 21:22:00,45.0,-99.9,-100.00,WNW,294,2.0,-999.0,-999,-99.99,,,-99.99,,2013-01-08 05:22:00,
2013-01-07 21:33:00,45.0,-99.9,-100.00,WNW,294,2.0,-999.0,-999,-99.99,,,-99.99,,2013-01-08 05:33:00,
2013-01-07 21:43:00,45.0,-99.9,-100.00,WNW,294,2.0,-999.0,-999,-99.99,,,-99.99,,2013-01-08 05:43:00,
2013-01-07 21:53:00,45.0,-99.9,-100.00,WNW,294,2.0,-999.0,-999,-99.99,,,-99.99,,2013-01-08 05:53:00,
2013-01-07 22:23:00,45.0,-99.9,-100.00,North,10,3.0,-999.0,-999,-99.99,,,-99.99,,2013-01-08 06:23:00,
2013-01-07 22:33:00,45.0,-99.9,-100.00,North,10,3.0,-999.0,-999,-99.99,,,-99.99,,2013-01-08 06:33:00,
2013-01-07 22:43:00,45.0,-99.9,-100.00,North,10,3.0,-999.0,-999,-99.99,,,-99.99,,2013-01-08 06:43:00,
2013-01-07 22:53:00,45.0,-99.9,-100.00,North,10,3.0,-999.0,-999,-99.99,,,-99.99,,2013-01-08 06:53:00,
2013-01-07 23:22:00,44.0,-99.9,-100.00,South,173,2.0,-999.0,-999,-99.99,,,-99.99,,2013-01-08 07:22:00,
2013-01-07 23:32:00,44.0,-99.9,-100.00,South,173,2.0,-999.0,-999,-99.99,,,-99.99,,2013-01-08 07:32:00,
2013-01-07 23:42:00,44.0,-99.9,-100.00,South,173,2.0,-999.0,-999,-99.99,,,-99.99,,2013-01-08 07:42:00,
2013-01-07 23:53:00,44.0,-99.9,-100.00,South,173,2.0,-999.0,-999,-99.99,,,-99.99,,2013-01-08 07:53:00,